This demonstration page uses our WeatherBlox Daily Observations layout. Learn more.

40.92945, -100.16068

Hourly Observations for February 17, 2019

Temp ( °F °C ) Dew Point ( °F °C ) Humidity (%) Winds ( mph kmh ) Pressure ( in mb ) Visibility ( mi km ) Precip ( " mm )
12:15 am 00:15 Cloudy with Light Snow 13 -10.7 10 -12.5 87 87 NNW 5 7 29.96 1014 2.5 4.02335 0 0
12:35 am 00:35 Cloudy with Light Snow 12 -11.1 9 -13 86 86 NNW 5 7 29.96 1015 3 4.82802 0 0
12:55 am 00:55 Cloudy with Light Snow 11 -11.5 8 -13.2 87 87 NW 3 6 29.97 1015 4 6.43736 0 0
1:15 am 01:15 Cloudy with Light Snow 10 -12 7 -13.8 87 87 NNW 3 6 29.98 1015 3 4.82802 0 0
1:35 am 01:35 Cloudy with Light Snow 10 -12.5 7 -14.1 88 88 NNW 5 7 29.99 1015 4 6.43736 0 0
1:55 am 01:55 Cloudy with Mist and Fog 11 -11.4 8 -13.1 87 87 NNW 5 7 29.97 1015 4 6.43736 0 0
2:15 am 02:15 Cloudy 13 -10.8 9 -12.6 87 87 N 3 6 29.97 1015 7 11.26538 0 0
2:35 am 02:35 Cloudy 13 -10.6 10 -12.3 87 87 N 3 6 29.97 1015 7 11.26538 0 0
2:55 am 02:55 Cloudy 13 -10.5 10 -12.3 87 87 N 5 7 29.95 1014 10 16.0934 0 0
3:15 am 03:15 Cloudy with Light Snow 13 -10.3 10 -12.1 87 87 NW 6 9 29.95 1014 10 16.0934 0 0
3:35 am 03:35 Cloudy 13 -10.6 9 -12.6 85 85 NW 6 9 29.97 1015 10 16.0934 0 0
3:55 am 03:55 Cloudy 11 -11.5 8 -13.6 85 85 WNW 6 9 29.98 1015 10 16.0934 0 0
4:15 am 04:15 Mostly Cloudy 8 -13.2 5 -15.2 85 85 W 9 15 30 1016 10 16.0934 0 0
4:35 am 04:35 Mostly Cloudy 7 -14.1 4 -15.7 88 88 WNW 10 17 30.02 1017 10 16.0934 0 0
4:55 am 04:55 Cloudy 10 -12.3 7 -13.9 88 88 NW 13 20 30.02 1017 10 16.0934 0 0
5:15 am 05:15 Cloudy 14 -10 10 -12.4 83 83 NW 14 22 30.01 1016 10 16.0934 0 0
5:35 am 05:35 Cloudy 15 -9.6 9 -12.6 79 79 NW 16 26 30.01 1016 10 16.0934 0 0
5:55 am 05:55 Cloudy 15 -9.3 10 -12.5 78 78 NW 15 24 30.02 1017 10 16.0934 0 0
6:15 am 06:15 Cloudy 15 -9.4 9 -12.8 77 77 NW 18 30 30.02 1017 10 16.0934 0 0
6:35 am 06:35 Cloudy 15 -9.5 9 -12.7 78 78 NW 15 24 30.03 1017 10 16.0934 0 0
6:55 am 06:55 Cloudy 15 -9.5 9 -13 76 76 NNW 16 26 30.04 1017 10 16.0934 0 0
7:15 am 07:15 Cloudy 15 -9.5 9 -13 76 76 NW 17 28 30.04 1017 10 16.0934 0 0
7:35 am 07:35 Cloudy 15 -9.6 9 -13 77 77 NW 10 17 30.06 1018 10 16.0934 0 0
7:55 am 07:55 Cloudy 14 -9.8 8 -13.3 76 76 NNW 14 22 30.08 1019 10 16.0934 0 0
8:15 am 08:15 Cloudy 14 -10 8 -13.3 77 77 NNW 16 26 30.09 1019 10 16.0934 0 0
8:35 am 08:35 Cloudy 14 -10 8 -13.5 76 76 NNW 17 28 30.1 1019 10 16.0934 0 0
8:55 am 08:55 Cloudy 14 -10 8 -13.6 75 75 NNW 18 30 30.11 1020 10 16.0934 0 0
9:15 am 09:15 Cloudy 14 -10 8 -13.5 76 76 NNW 17 28 30.12 1020 10 16.0934 0 0
9:35 am 09:35 Cloudy 14 -10 8 -13.6 75 75 NNW 21 33 30.12 1020 10 16.0934 0 0
9:55 am 09:55 Partly Cloudy 15 -9.7 8 -13.5 74 74 NNW 21 33 30.13 1020 10 16.0934 0 0
10:15 am 10:15 Sunny 15 -9.6 8 -13.5 74 74 NNW 17 28 30.15 1021 10 16.0934 0 0
10:35 am 10:35 Sunny 15 -9.4 8 -13.3 74 74 NNW 17 28 30.15 1021 10 16.0934 0 0
10:55 am 10:55 Sunny 16 -9.1 8 -13.1 73 73 NNW 20 31 30.16 1021 10 16.0934 0 0
11:15 am 11:15 Partly Cloudy 16 -9 9 -13 73 73 NW 17 28 30.16 1021 7 11.26538 0 0
11:35 am 11:35 Partly Cloudy 16 -8.7 9 -12.7 73 73 NW 20 31 30.18 1022 7 11.26538 0 0
11:55 am 11:55 Partly Cloudy 17 -8.5 9 -12.6 73 73 NNW 18 30 30.17 1022 10 16.0934 0 0
12:15 pm 12:15 Sunny 17 -8.4 10 -12.4 73 73 NW 18 30 30.18 1022 10 16.0934 0 0
12:35 pm 12:35 Sunny 17 -8.1 10 -12.3 72 72 NW 18 30 30.18 1022 10 16.0934 0 0
12:55 pm 12:55 Sunny 18 -8 10 -12.1 73 73 NW 20 31 30.18 1022 10 16.0934 0 0
1:15 pm 13:15 Partly Cloudy 18 -7.7 10 -12 72 72 NW 20 31 30.18 1022 10 16.0934 0 0
1:35 pm 13:35 Partly Cloudy 18 -7.6 10 -12 71 71 NW 18 30 30.17 1022 10 16.0934 0 0
1:55 pm 13:55 Mostly Cloudy 19 -7.5 10 -12 70 70 NNW 21 33 30.17 1022 10 16.0934 0 0
2:15 pm 14:15 Cloudy 19 -7.3 11 -11.9 70 70 NNW 22 35 30.17 1022 7 11.26538 0 0
2:35 pm 14:35 Mostly Cloudy 19 -7.3 10 -12 69 69 NNW 21 33 30.17 1022 7 11.26538 0 0
2:55 pm 14:55 Mostly Cloudy 19 -7 11 -11.4 71 71 NNW 20 31 30.18 1022 10 16.0934 0 0
3:15 pm 15:15 Cloudy 19 -7 11 -11.9 68 68 NNW 18 30 30.19 1022 10 16.0934 0 0
3:35 pm 15:35 Cloudy 19 -7.4 10 -12.1 69 69 NNW 17 28 30.2 1023 10 16.0934 0 0
3:55 pm 15:55 Cloudy 19 -7.3 10 -12.1 69 69 NW 18 30 30.22 1023 10 16.0934 0 0
4:15 pm 16:15 Mostly Cloudy 18 -7.6 9 -12.7 67 67 NNW 16 26 30.23 1024 10 16.0934 0 0
4:35 pm 16:35 Mostly Cloudy 18 -7.8 10 -12.5 69 69 NNW 15 24 30.24 1024 10 16.0934 0 0
4:55 pm 16:55 Mostly Cloudy 17 -8.4 8 -13.2 69 69 NNW 15 24 30.24 1024 10 16.0934 0 0
5:15 pm 17:15 Partly Cloudy 17 -8.6 8 -13.5 68 68 NW 17 28 30.26 1025 10 16.0934 0 0
5:35 pm 17:35 Partly Cloudy 16 -9 8 -13.6 70 70 NNW 16 26 30.27 1025 10 16.0934 0 0
6:15 pm 18:15 Mostly Cloudy 14 -9.8 7 -14 72 72 NNW 17 28 30.3 1026 10 16.0934 0 0
6:35 pm 18:35 Partly Cloudy 13 -10.3 6 -14.5 72 72 NNW 14 22 30.32 1027 10 16.0934 0 0
6:55 pm 18:55 Partly Cloudy 12 -11.2 5 -15.1 73 73 NNW 12 19 30.34 1028 10 16.0934 0 0
7:15 pm 19:15 Partly Cloudy 11 -11.8 4 -15.5 74 74 NW 12 19 30.37 1028 10 16.0934 0 0
7:35 pm 19:35 Clear 9 -12.9 3 -16.3 76 76 NW 13 20 30.39 1029 10 16.0934 0 0
7:55 pm 19:55 Clear 9 -13 3 -16.2 77 77 NW 13 20 30.4 1030 10 16.0934 0 0
8:15 pm 20:15 Clear 8 -13.3 2 -16.6 76 76 NW 13 20 30.42 1030 10 16.0934 0 0
8:35 pm 20:35 Clear 8 -13.6 1 -17.2 75 75 NW 13 20 30.43 1031 10 16.0934 0 0
8:55 pm 20:55 Clear 6 -14.2 0 -17.6 76 76 NW 14 22 30.44 1031 10 16.0934 0 0
9:15 pm 21:15 Clear 7 -14 1 -17.5 75 75 WNW 10 17 30.46 1031 10 16.0934 0 0
9:35 pm 21:35 Clear 6 -14.2 0 -17.7 75 75 NW 12 19 30.47 1032 10 16.0934 0 0
9:55 pm 21:55 Clear 6 -14.5 0 -18 75 75 WNW 12 19 30.48 1032 10 16.0934 0 0
10:15 pm 22:15 Clear 5 -15 -1 -18.6 74 74 WNW 12 19 30.5 1033 10 16.0934 0 0
10:35 pm 22:35 Clear 4 -15.5 -2 -18.8 76 76 WNW 14 22 30.51 1033 10 16.0934 0 0
10:55 pm 22:55 Clear 3 -16 -3 -19.2 77 77 WNW 10 17 30.53 1034 10 16.0934 0 0
11:15 pm 23:15 Clear 3 -16.2 -3 -19.6 75 75 WNW 13 20 30.53 1034 10 16.0934 0 0
11:35 pm 23:35 Clear 2 -16.6 -4 -19.9 76 76 WNW 13 20 30.55 1034 10 16.0934 0 0
11:55 pm 23:55 Clear 2 -16.7 -4 -20 76 76 WNW 13 20 30.55 1034 10 16.0934 0 0

Powered by AerisWeather